Showing default

AMOS 17, 44479

Orbit data source: Space-Track

AMOS 17, 44479 is a payload satellite owned by IAI Spacecom (IL) in GEO that was launched on Tue, 06 Aug 2019 UTC via an FALCON 9 launch vehicle from the Air Force Eastern Test Range (AFETR). Payloads include a variety of satellites, spacecraft, and rockets equipped with specific instruments for various scientific and technological missions. These include communications satellites like Starlink; space stations such as the ISS; scientific satellites like the Hubble; Earth observation satellites from companies like Planet Labs, Umbra, and HawkEye 360; GPS; miniature CubeSats for education and research; and military/defense satellites.

Not visible in the next 10 days
AMOS 17 details
Identifier
44479, 2019-050A
Orbit
GEO
Last TLE update1 day ago
Origin
Flag of ILIAI Spacecom (IL / ISRA)
ManufacturerBoeing/ES
MissionOperational Commercial Communications
Bus & MotorBSS-702MP, R-4D?
Mass5,500 kg wet, ~2,500 kg dry
Launch date (UTC)
2019-08-06 (5 years ago)
Launch vehicle
FALCON 9
Launch site
Air Force Eastern Test Range (AFETR)
Object type
Payload
Rocket body
Debris
Shape & HBRBox + 2 Pan, 35 m
Radar Cross Section56.564 m², Large (>1 m²)

Expand to show TLE details & history

TLE from 1 day ago
0 AMOS 17
1 44479U 19050A   24360.39355093  .00000136  00000-0  00000-0 0  9995
2 44479   0.0147 325.2430 0001866 294.0685 353.7588  1.00271675 19789
Epoch: 2024-12-25T09:26Z
Definitive object data (Epoch: 2024-12-25T09:26:42.8Z)
Latitude-0.03293°
Longitude16.99511°
Altitude35,778.268 km
Speed3.075 km/s
True Right ascension16h 52m 14s
True Declination0° 01' 58"
Sunlit
Object was in daylight at TLE epoch
Visualization TLE readout
Latitude-0.02721°
Longitude45.79952°
Altitude35,778.696 km
Speed3.075 km/s
Apparent Right ascension19h 08m 38s
Apparent Declination-5° 11' 59"
Sunlit
Object is in daylight
Visualization observer readout
Local Sidereal Time10:38:58
Azimuth68.049° E
Elevation-31.485°
Doppler factor1
Orbital elements
Apogee altitude35,795.564 km
Perigee altitude35,779.828 km
Semi-major axis42,165.833 km
Eccentricity0.0001866
Inclination0.0147°
RAAN325.243°
Arg. of periapsis294.0685°
True anomaly353.75647°
Mean anomaly353.7588°
Eccentric anomaly353.75764°
Mean motion0.25067 °/min
BSTARUnknown
Orbital period1436.15 mins
Loading historical data...
44479 neighbors
Authenticating...
Loading maneuver chart data...
Loading historical data...
Loading historical data...
Loading historical data...
Loading historical data...
Loading historical data...
Loading historical data...
Loading historical data...
Other satellites on launch #50 in the year 2019 (2019-08-06 UTC)

AMOS 17 Visibility forecast

Observer location: undefined°, undefined

AMOS 17 is not visible in the next 10 days
Span
Click to sort rows by Start time (UTC) header in descending order
Start Az.
Max El. time (UTC)
Max El. Az.
Max El.
End time (UTC)
End Az.
|